Starlink 5450

operational
NORAD ID: 54778 Int'l Des: 2022-175 Owner: SPXS Country: US Constellation: starlink
LEOCIRCULAR

About Starlink 5450

Description loading...

Live Position

Loading 3D Globe...

Upcoming Passes

Altitude History

Altitude vs Time

uPlot chart will show altitude changes over time

Two-Line Element Set

1 54778U 22175W 26035.47045844 -.00001636 00000-0 -84723-4 0 9996
2 54778 53.2144 178.3089 0000835 85.1339 274.9749 15.08843880175115
Epoch: Feb 4, 2026 • Age: 9 hours

Current Status

Altitude 554.4 km
Velocity 7.58 km/s
Sub-Earth Point -42.41°S, 50.11°E
Launch Date Dec 17, 2022
Age 3.1 years
Type internet

Technical Details

Classification Payload
Mass 305.00 kg
Dry Mass 290.00 kg
Total Mass 305.00 kg
Length 0.20 m
Diameter 2.80 m
Span 9.00 m
Shape Box + pan
Manufacturer SPXS
Bus Type Starlink
Phase Status In Orbit
Owner/State SPXS/US

Large Constellations

Loading constellations...